Tracking 19817 objects as of 19-Aug-2019
HD Live streaming from Space Station
objects crossing your sky now

COSMOS 2251 DEB

Track COSMOS 2251 DEB now!
10-day predictions


NORAD ID: 33993
Int'l Code: 1993-036GC
Perigee: 667.0 km
Apogee: 711.2 km
Inclination: 74.0 °
Period: 98.4 minutes
Semi major axis: 7060 km
RCS: 0.021 m2 (small)
Launch date: June 16, 1993
Source: Commonwealth of Independent States (former USSR) (CIS)
Launch site: PLESETSK MISSILE AND SPACE COMPLEX (PKMTR)

Note: This is SATELLITE DEBRIS
aabbcc
Your satellite tracking list
Your tracking list is empty




NASA's NSSDC Master Catalog

Two Line Element Set (TLE):
1 33993U 93036GC  19230.69561630 +.00000705 +00000-0 +14123-3 0  9995
2 33993 074.0211 336.9938 0031252 320.9376 038.9535 14.63483904557101
Source of the keplerian elements: AFSPC